| time (UTC) | temp F | wind direction | speed knots | gust knots | rain 1hr in | rain 24hr in | rain mn in | humidity % | barometer mb |
| 20260507060515 | 58 | 291 | 0.0 | 5.2 | 0.00 | 0.00 | 0.00 | 98 | 1010.1 |
| 20260507055556 | 58 | 329 | 0.0 | 1.7 | 0.00 | 0.00 | 0.00 | 98 | 1010.2 |
| 20260507054516 | 58 | 127 | 0.0 | 2.6 | 0.00 | 0.00 | 0.00 | 98 | 1010.0 |
| 20260507053516 | 58 | 27 | 0.0 | 1.7 | 0.00 | 0.00 | 0.00 | 98 | 1010.1 |
| 20260507052515 | 59 | 343 | 0.0 | 1.7 | 0.00 | 0.00 | 0.00 | 98 | 1010.1 |
| 20260507051516 | 59 | 110 | 0.9 | 3.5 | 0.00 | 0.00 | 0.00 | 97 | 1010.0 |
| 20260507050515 | 60 | 174 | 0.0 | 2.6 | 0.00 | 0.00 | 0.00 | 96 | 1010.3 |
| 20260507045516 | 61 | 29 | 1.7 | 7.0 | 0.00 | 0.00 | 0.00 | 90 | 1009.6 |
| 20260507044536 | 61 | 216 | 0.0 | 0.9 | 0.00 | 0.00 | 0.00 | 89 | 1009.5 |
| 20260507043515 | 61 | 318 | 0.9 | 5.2 | 0.00 | 0.00 | 0.00 | 89 | 1009.6 |
| 20260507042515 | 62 | 293 | 0.0 | 2.6 | 0.00 | 0.00 | 0.00 | 89 | 1009.2 |
| 20260507041535 | 62 | 3 | 0.9 | 3.5 | 0.00 | 0.00 | 0.00 | 88 | 1009.3 |
| 20260507040516 | 62 | 275 | 0.0 | 1.7 | 0.00 | 0.00 | 0.00 | 87 | 1009.3 |
| 20260507035535 | 62 | 297 | 0.9 | 3.5 | 0.00 | 0.00 | 0.00 | 86 | 1009.3 |
| 20260507034515 | 63 | 320 | 1.7 | 4.3 | 0.00 | 0.00 | 0.00 | 85 | 1009.5 |
| 20260507033516 | 63 | 314 | 1.7 | 5.2 | 0.00 | 0.00 | 0.00 | 86 | 1009.3 |
| 20260507032556 | 64 | 319 | 1.7 | 6.1 | 0.00 | 0.00 | 0.00 | 86 | 1009.1 |
| 20260507031556 | 64 | 31 | 0.9 | 5.2 | 0.00 | 0.00 | 0.00 | 88 | 1008.8 |
| 20260507030535 | 65 | 339 | 0.9 | 4.3 | 0.00 | 0.00 | 0.00 | 94 | 1008.9 |
| 20260507025515 | 65 | 316 | 0.9 | 3.5 | 0.00 | 0.00 | 0.00 | 95 | 1008.7 |
| 20260507024515 | 65 | 316 | 0.9 | 4.3 | 0.00 | 0.00 | 0.00 | 95 | 1008.5 |
| 20260507023515 | 66 | 313 | 0.0 | 1.7 | 0.00 | 0.00 | 0.00 | 96 | 1008.5 |
| 20260507022556 | 66 | 314 | 0.0 | 3.5 | 0.00 | 0.00 | 0.00 | 97 | 1008.4 |
| 20260507021535 | 66 | 35 | 0.0 | 1.7 | 0.00 | 0.00 | 0.00 | 98 | 1008.3 |
| 20260507020515 | 66 | 0.0 | 0.0 | 0.00 | 0.00 | 0.00 | 98 | 1008.3 | |
| 20260507015515 | 66 | 0.0 | 0.0 | 0.00 | 0.00 | 0.00 | 98 | 1008.8 | |
| 20260507014516 | 66 | 0.0 | 0.0 | 0.00 | 0.00 | 0.00 | 98 | 1008.7 | |
| 20260507013515 | 66 | 0.0 | 0.0 | 0.00 | 0.00 | 0.00 | 97 | 1008.7 | |
| 20260507012515 | 66 | 299 | 0.9 | 1.7 | 0.00 | 0.00 | 0.00 | 97 | 1008.6 |
| 20260507011515 | 66 | 0.0 | 0.0 | 0.00 | 0.00 | 0.00 | 96 | 1008.5 | |
| 20260507010515 | 66 | 0.0 | 0.0 | 0.00 | 0.00 | 0.00 | 96 | 1008.3 | |
| 20260507005516 | 66 | 0.0 | 0.0 | 0.00 | 0.00 | 0.00 | 95 | 1008.2 | |
| 20260507004515 | 67 | 0.0 | 0.0 | 0.00 | 0.00 | 0.00 | 94 | 1007.9 | |
| 20260507003515 | 67 | 170 | 0.0 | 0.9 | 0.00 | 0.00 | 0.00 | 93 | 1007.6 |
| 20260507002535 | 67 | 138 | 0.9 | 3.5 | 0.00 | 0.00 | 0.00 | 93 | 1007.5 |
| 20260507001515 | 68 | 159 | 0.0 | 0.9 | 0.00 | 0.00 | 0.00 | 92 | 1007.8 |
| 20260507000515 | 68 | 0.0 | 0.0 | 0.00 | 0.00 | 0.00 | 91 | 1007.4 | |
| 20260506235515 | 68 | 32 | 0.0 | 0.9 | 0.00 | 0.00 | 0.00 | 90 | 1007.4 |
| 20260506234516 | 68 | 0.0 | 0.0 | 0.00 | 0.00 | 0.00 | 89 | 1007.1 | |
| 20260506233515 | 69 | 0.0 | 0.0 | 0.00 | 0.00 | 0.00 | 88 | 1007.1 | |
| 20260506232516 | 69 | 0.0 | 0.0 | 0.00 | 0.00 | 0.00 | 87 | 1007.1 | |
| 20260506231515 | 69 | 67 | 0.0 | 2.6 | 0.00 | 0.00 | 0.00 | 87 | 1007.1 |
| 20260506230515 | 69 | 0.0 | 0.0 | 0.00 | 0.00 | 0.00 | 87 | 1007.1 | |
| 20260506225515 | 69 | 80 | 0.0 | 0.9 | 0.00 | 0.00 | 0.00 | 86 | 1006.9 |
| 20260506224515 | 69 | 0.0 | 0.0 | 0.00 | 0.00 | 0.00 | 85 | 1006.9 | |
| 20260506223535 | 70 | 0.0 | 0.0 | 0.00 | 0.00 | 0.00 | 83 | 1006.9 | |
| 20260506222515 | 70 | 0.0 | 0.0 | 0.00 | 0.00 | 0.00 | 82 | 1006.8 | |
| 20260506221515 | 70 | 182 | 0.0 | 1.7 | 0.00 | 0.00 | 0.00 | 83 | 1006.8 |
| 20260506220515 | 70 | 179 | 0.9 | 3.5 | 0.00 | 0.00 | 0.00 | 81 | 1006.8 |
| 20260506215535 | 70 | 202 | 0.0 | 2.6 | 0.00 | 0.00 | 0.00 | 81 | 1006.6 |
| 20260506214535 | 70 | 179 | 1.7 | 3.5 | 0.00 | 0.00 | 0.00 | 80 | 1006.4 |
| 20260506213515 | 70 | 208 | 0.9 | 5.2 | 0.00 | 0.00 | 0.00 | 82 | 1006.3 |
| 20260506212515 | 70 | 183 | 0.9 | 2.6 | 0.00 | 0.00 | 0.00 | 80 | 1006.2 |
| 20260506211515 | 71 | 178 | 1.7 | 6.1 | 0.00 | 0.00 | 0.00 | 79 | 1005.9 |
| 20260506210515 | 72 | 173 | 0.9 | 3.5 | 0.00 | 0.00 | 0.00 | 78 | 1005.7 |
| 20260506205515 | 72 | 182 | 1.7 | 4.3 | 0.00 | 0.00 | 0.00 | 77 | 1005.5 |
| 20260506204515 | 71 | 161 | 0.0 | 2.6 | 0.00 | 0.00 | 0.00 | 78 | 1005.4 |
| 20260506203515 | 71 | 200 | 2.6 | 8.7 | 0.00 | 0.00 | 0.00 | 75 | 1005.0 |
| 20260506202516 | 72 | 187 | 1.7 | 7.0 | 0.00 | 0.00 | 0.00 | 75 | 1004.7 |
| 20260506201556 | 72 | 199 | 2.6 | 9.6 | 0.00 | 0.00 | 0.00 | 74 | 1004.4 |
| 20260506200515 | 72 | 202 | 1.7 | 5.2 | 0.00 | 0.00 | 0.00 | 73 | 1004.4 |
| 20260506195515 | 73 | 207 | 0.9 | 6.1 | 0.00 | 0.00 | 0.00 | 74 | 1002.1 |
| 20260506194515 | 72 | 231 | 0.9 | 5.2 | 0.00 | 0.00 | 0.00 | 76 | 1003.8 |
| 20260506193515 | 71 | 186 | 2.6 | 7.8 | 0.00 | 0.00 | 0.00 | 76 | 1004.0 |
| 20260506192515 | 71 | 200 | 2.6 | 8.7 | 0.00 | 0.00 | 0.00 | 78 | 1004.9 |
| 20260506191515 | 70 | 161 | 0.9 | 3.5 | 0.00 | 0.00 | 0.00 | 83 | 1005.6 |
| 20260506190515 | 69 | 158 | 0.9 | 3.5 | 0.00 | 0.00 | 0.00 | 85 | 1007.2 |
| 20260506185515 | 68 | 196 | 2.6 | 6.1 | 0.00 | 0.00 | 0.00 | 87 | 1007.3 |
| 20260506184515 | 68 | 5 | 0.0 | 2.6 | 0.00 | 0.00 | 0.00 | 88 | 1007.3 |
| 20260506183515 | 67 | 220 | 0.9 | 5.2 | 0.00 | 0.00 | 0.00 | 88 | 1007.3 |
| 20260506182515 | 67 | 179 | 2.6 | 8.7 | 0.00 | 0.00 | 0.00 | 88 | 1007.3 |
| 20260506181516 | 67 | 217 | 1.7 | 8.7 | 0.00 | 0.00 | 0.00 | 91 | 1007.6 |
| 20260506180515 | 66 | 176 | 1.7 | 7.0 | 0.00 | 0.00 | 0.00 | 93 | 1007.6 |
| 20260506175515 | 66 | 172 | 1.7 | 7.0 | 0.00 | 0.00 | 0.00 | 95 | 1007.5 |
| 20260506174536 | 65 | 172 | 1.7 | 7.0 | 0.00 | 0.00 | 0.00 | 96 | 1007.8 |
| 20260506173515 | 65 | 189 | 1.7 | 7.0 | 0.00 | 0.00 | 0.00 | 96 | 1007.8 |
| 20260506172515 | 64 | 184 | 0.0 | 2.6 | 0.00 | 0.00 | 0.00 | 97 | 1007.8 |
| 20260506171515 | 64 | 146 | 0.0 | 3.5 | 0.00 | 0.00 | 0.00 | 97 | 1007.8 |
| 20260506170515 | 64 | 192 | 1.7 | 7.0 | 0.00 | 0.00 | 0.00 | 97 | 1008.0 |
| 20260506165516 | 64 | 175 | 1.7 | 7.8 | 0.00 | 0.00 | 0.00 | 98 | 1008.1 |
| 20260506164535 | 64 | 191 | 0.9 | 2.6 | 0.00 | 0.00 | 0.00 | 98 | 1008.0 |
| 20260506163516 | 63 | 134 | 0.9 | 6.1 | 0.00 | 0.00 | 0.00 | 98 | 1008.2 |
| 20260506162515 | 64 | 196 | 3.5 | 10.4 | 0.00 | 0.00 | 0.00 | 97 | 1008.2 |
| 20260506161515 | 64 | 186 | 3.5 | 10.4 | 0.00 | 0.00 | 0.00 | 97 | 1008.3 |
| 20260506160535 | 64 | 184 | 2.6 | 6.1 | 0.00 | 0.00 | 0.00 | 97 | 1008.4 |
| 20260506155536 | 64 | 181 | 1.7 | 7.0 | 0.00 | 0.00 | 0.00 | 97 | 1008.2 |
| 20260506154515 | 64 | 169 | 2.6 | 7.0 | 0.00 | 0.00 | 0.00 | 98 | 1008.4 |
| 20260506153515 | 63 | 144 | 1.7 | 6.1 | 0.00 | 0.00 | 0.00 | 98 | 1008.7 |
| 20260506152515 | 64 | 184 | 0.9 | 7.8 | 0.00 | 0.00 | 0.00 | 97 | 1008.9 |
| 20260506150515 | 64 | 165 | 0.9 | 3.5 | 0.00 | 0.00 | 0.00 | 97 | 1009.2 |
| 20260506145515 | 64 | 168 | 0.9 | 3.5 | 0.00 | 0.00 | 0.00 | 97 | 1009.1 |
| 20260506144515 | 64 | 181 | 0.0 | 2.6 | 0.00 | 0.00 | 0.00 | 97 | 1008.9 |
| 20260506143515 | 64 | 179 | 0.9 | 6.1 | 0.00 | 0.00 | 0.00 | 97 | 1008.9 |
| 20260506142515 | 64 | 168 | 0.9 | 4.3 | 0.00 | 0.00 | 0.00 | 97 | 1008.9 |
| 20260506141515 | 64 | 169 | 0.9 | 4.3 | 0.00 | 0.00 | 0.00 | 96 | 1009.3 |
| 20260506140515 | 64 | 185 | 0.9 | 5.2 | 0.00 | 0.00 | 0.00 | 96 | 1009.4 |
| 20260506135515 | 64 | 163 | 1.7 | 7.0 | 0.00 | 0.00 | 0.00 | 94 | 1009.3 |
| 20260506134515 | 64 | 172 | 1.7 | 7.0 | 0.00 | 0.00 | 0.00 | 92 | 1009.1 |
| 20260506133515 | 65 | 182 | 1.7 | 7.0 | 0.00 | 0.00 | 0.00 | 91 | 1009.2 |
| 20260506132515 | 66 | 180 | 2.6 | 6.1 | 0.00 | 0.00 | 0.00 | 88 | 1009.1 |
| 20260506131515 | 66 | 151 | 0.0 | 1.7 | 0.00 | 0.00 | 0.00 | 88 | 1008.9 |
| 20260506130556 | 66 | 165 | 0.9 | 4.3 | 0.00 | 0.00 | 0.00 | 88 | 1008.9 |
| 20260506125516 | 66 | 188 | 0.9 | 4.3 | 0.00 | 0.00 | 0.00 | 88 | 1009.0 |
| 20260506124515 | 65 | 190 | 0.9 | 7.0 | 0.00 | 0.00 | 0.00 | 88 | 1009.2 |
| 20260506123535 | 65 | 165 | 0.9 | 4.3 | 0.00 | 0.00 | 0.00 | 87 | 1009.5 |
| 20260506122515 | 65 | 193 | 1.7 | 6.1 | 0.00 | 0.00 | 0.00 | 85 | 1009.5 |
| 20260506121515 | 65 | 188 | 3.5 | 8.7 | 0.00 | 0.00 | 0.00 | 84 | 1009.6 |
| 20260506120535 | 65 | 184 | 2.6 | 7.8 | 0.00 | 0.00 | 0.00 | 84 | 1009.6 |
| 20260506115535 | 66 | 177 | 2.6 | 10.4 | 0.00 | 0.00 | 0.00 | 84 | 1009.3 |
| 20260506114515 | 66 | 173 | 2.6 | 7.0 | 0.00 | 0.00 | 0.00 | 83 | 1009.3 |
| 20260506113515 | 66 | 188 | 3.5 | 10.4 | 0.00 | 0.00 | 0.00 | 84 | 1009.2 |
| 20260506112515 | 66 | 181 | 3.5 | 10.4 | 0.00 | 0.00 | 0.00 | 83 | 1009.2 |
| 20260506111515 | 65 | 183 | 1.7 | 7.8 | 0.00 | 0.00 | 0.00 | 85 | 1009.0 |
| 20260506110515 | 65 | 169 | 3.5 | 10.4 | 0.00 | 0.00 | 0.00 | 84 | 1009.1 |
| 20260506105515 | 65 | 183 | 2.6 | 11.3 | 0.00 | 0.00 | 0.00 | 86 | 1009.0 |
| 20260506104535 | 64 | 187 | 2.6 | 7.8 | 0.00 | 0.00 | 0.00 | 88 | 1009.0 |
| 20260506103515 | 64 | 196 | 2.6 | 7.8 | 0.00 | 0.00 | 0.00 | 88 | 1008.9 |
| 20260506102516 | 64 | 177 | 3.5 | 8.7 | 0.00 | 0.00 | 0.00 | 88 | 1008.9 |
| 20260506101516 | 64 | 180 | 2.6 | 7.8 | 0.00 | 0.00 | 0.00 | 87 | 1009.0 |
| 20260506100536 | 64 | 202 | 3.5 | 7.8 | 0.00 | 0.00 | 0.00 | 88 | 1008.9 |
| 20260506095515 | 64 | 179 | 4.3 | 12.2 | 0.00 | 0.00 | 0.00 | 87 | 1008.9 |
| 20260506094515 | 65 | 189 | 2.6 | 10.4 | 0.00 | 0.00 | 0.00 | 87 | 1009.0 |
| 20260506093535 | 65 | 185 | 5.2 | 11.3 | 0.00 | 0.00 | 0.00 | 86 | 1009.0 |
| 20260506092515 | 65 | 192 | 3.5 | 8.7 | 0.00 | 0.00 | 0.00 | 86 | 1008.8 |
| 20260506091515 | 65 | 189 | 1.7 | 8.7 | 0.00 | 0.00 | 0.00 | 86 | 1009.0 |
| 20260506090515 | 65 | 186 | 2.6 | 7.8 | 0.00 | 0.00 | 0.00 | 85 | 1009.1 |
| 20260506085515 | 65 | 195 | 3.5 | 13.9 | 0.00 | 0.00 | 0.00 | 85 | 1009.1 |
| 20260506084515 | 65 | 175 | 3.5 | 11.3 | 0.00 | 0.00 | 0.00 | 84 | 1009.1 |
| 20260506083516 | 66 | 181 | 2.6 | 5.2 | 0.00 | 0.00 | 0.00 | 83 | 1009.0 |
| 20260506082515 | 66 | 170 | 2.6 | 10.4 | 0.00 | 0.00 | 0.00 | 83 | 1009.0 |
| 20260506081516 | 66 | 201 | 1.7 | 9.6 | 0.00 | 0.00 | 0.00 | 82 | 1008.9 |
| 20260506080536 | 66 | 186 | 3.5 | 10.4 | 0.00 | 0.00 | 0.00 | 82 | 1009.0 |
| 20260506073516 | 67 | 183 | 1.7 | 7.0 | 0.00 | 0.00 | 0.00 | 80 | 1009.3 |
| 20260506072515 | 67 | 177 | 1.7 | 8.7 | 0.00 | 0.00 | 0.00 | 79 | 1009.3 |
| 20260506071515 | 67 | 167 | 3.5 | 9.6 | 0.00 | 0.00 | 0.00 | 78 | 1009.3 |
| 20260506070515 | 67 | 179 | 3.5 | 7.8 | 0.00 | 0.00 | 0.00 | 78 | 1009.3 |
| 20260506062515 | 66 | 167 | 1.7 | 7.0 | 0.00 | 0.00 | 0.00 | 78 | 1009.6 |
| 20260506061516 | 66 | 172 | 0.9 | 3.5 | 0.00 | 0.00 | 0.00 | 77 | 1009.6 |